Regional Weather Roundup
Issued by NWS

Home | Current Version | Previous Version | Text Only | Print | Product List | Glossary On
Versions: 1 2 3 4 5 6 7 8 9 10 11 12 13 14 15 16 17 18 19 20 21 22 23 24 25 26 27 28 29 30 31 32 33 34 35 36 37 38 39 40 41 42 43 44 45 46 47 48 49 50
000
ASUS44 KJAN 291903
RWRMS

MISSISSIPPI HOURLY WEATHER ROUNDUP
NATIONAL WEATHER SERVICE JACKSON MS
200 PM CDT FRI MAY 29 2015

NOTE: "FAIR: INDICATES FEW OR NO CLOUDS BELOW 12,000 FEET WITH NO
SIGNIFICANT WEATHER AND/OR OBSTRUCTIONS TO VISIBILITY.

MSZ001>002-007>008-010>013-018>021-025>028-034>036-292000-
NORTHWEST MISSISSIPPI

CITY           SKY/WX    TMP DP  RH WIND       PRES   REMARKS
CLARKSDALE     FAIR      81  73  78 CALM      30.05F
CLEVELAND      MOCLDY    77  74  92 S9        30.05S
GREENWOOD      PTSUNNY   80  67  64 NW7       30.07F
GREENVILLE     PTSUNNY   79  73  82 SE10      30.03F
OLIVE BRANCH   PTSUNNY   73  73 100 S6        30.07F
OXFORD         FAIR      82  68  61 SE5       30.10F
TUNICA         PTCLDY    84  72  65 S8        30.05F
$$

MSZ003>006-009-014>017-022>024-029>033-037>039-292000-
NORTHEAST MISSISSIPPI

CITY           SKY/WX    TMP DP  RH WIND       PRES   REMARKS
COLUMBUS AFB   NOT AVBL
CORINTH        MOCLDY    79  70  73 VRB7      30.11F
GOLDN TRIANGLE PTSUNNY   81  70  69 SE14      30.11F
STARKVILLE     FAIR      82  70  65 E13       30.10F
TUPELO         MOSUNNY   83  68  60 S8        30.10F
$$

MSZ040-058-292000-
CENTRAL MISSISSIPPI

CITY           SKY/WX    TMP DP  RH WIND       PRES   REMARKS
JACKSON INTL   PTSUNNY   87  68  52 SE9       30.06F HX  90
JACKSON HAWKNS SUNNY     87  68  52 SE10      30.06F HX  90
MERIDIAN KEY   MOSUNNY   83  68  60 SE12G17   30.10F
MERIDIAN NAS   MOSUNNY   82  68  62 SE10      30.11F
RAYMOND        FAIR      86  81  84 SE7       30.05F HX 102
VICKSBURG      MOSUNNY   88  69  53 S8        30.03F HX  92
$$

MSZ059>079-292000-
SOUTH MISSISSIPPI

CITY           SKY/WX    TMP DP  RH WIND       PRES   REMARKS
BROOKHAVEN     FAIR      84  75  74 SE6       30.08F HX  92
HATTIESBURG    PTSUNNY   80  72  76 E7        30.10F
MCCOMB         MOSUNNY   86  70  58 VRB6      30.05F HX  90
NATCHEZ        MOSUNNY   84  72  65 SW8       30.05F
PINE BELT      PTSUNNY   75  70  83 CALM      30.11F
$$

MSZ080>082-292000-
COASTAL MISSISSIPPI

CITY           SKY/WX    TMP DP  RH WIND       PRES   REMARKS
BAY ST LOUIS   PTSUNNY   84  66  54 MISG      30.08F
BILOXI         SUNNY     85  70  60 S15       30.09S
PASCAGOULA     MOSUNNY   83  72  69 SE14G21   30.10F
GULFPORT       MOSUNNY   85  69  58 SE15      30.09S
$$


USA.gov is the U.S. government's official web portal to all federal, state and local government web resources and services.